CPA255 VHHH-LIMC

Flight info

Callsign CPA255
Flight time N/A
Altitude 30100
Route BEKOL A461 SHL W22 TEPID W24 OSNOV G586 QP B330 ELKAL W179 IRVED/K0939S0980 W179 IGNAK/K0935S0950 W179 WFX/K0930S0980 W179 OMBON W195 VIDEK/K0928S0950 W195 LAXAL/K0922S0980 W195 IDOPA W197 ANDIM B215 IBANO G470 AKLAS W192 FKG/K0895S1040 A368 SARIN/K0895F340 N161 GASBI/N0486F360 N161 LEYLA T916 MATAL M11 REBLO UM11 CRM UM688 EKSUK UL852 NEGEM DCT DOLAP DCT ADOSA/N0484F370 DCT IDREK DCT ELTAR DCT NOBMI DCT PEXUG
Aircraft B77W/H-SDE1E2E3FGHIJ2J3J4J5M1RWXY/LB1D1

Departure

Time 2026-05-06 22:33
Airport Hong Kong International Airport (VHHH)

Arrival

Time N/A
Airport Milan Malpensa International Airport (LIMC)
Time Latitude Longitude Altitude Speed Heading
2026-05-06 22:01 22.30986 113.92676 42 ft 0 kts 298°
2026-05-06 22:19 22.30983 113.92683 42 ft 2 kts 298°
2026-05-06 22:19 22.30975 113.92696 42 ft 2 kts 298°
2026-05-06 22:20 22.30970 113.92708 42 ft 0 kts 298°
2026-05-06 22:20 22.30964 113.92720 42 ft 2 kts 290°
2026-05-06 22:20 22.30961 113.92735 42 ft 2 kts 272°
2026-05-06 22:20 22.30962 113.92752 42 ft 2 kts 258°
2026-05-06 22:21 22.30966 113.92767 42 ft 2 kts 244°
2026-05-06 22:21 22.30974 113.92781 42 ft 2 kts 230°
2026-05-06 22:21 22.30985 113.92793 42 ft 2 kts 216°
2026-05-06 22:21 22.30993 113.92799 42 ft 0 kts 206°
2026-05-06 22:22 22.30996 113.92799 42 ft 0 kts 205°
2026-05-06 22:23 22.30943 113.92773 42 ft 17 kts 205°
2026-05-06 22:24 22.30831 113.92680 42 ft 23 kts 248°
2026-05-06 22:24 22.30780 113.92527 42 ft 20 kts 249°
2026-05-06 22:24 22.30735 113.92394 42 ft 17 kts 251°
2026-05-06 22:24 22.30699 113.92282 42 ft 14 kts 250°
2026-05-06 22:25 22.30667 113.92188 42 ft 12 kts 249°
2026-05-06 22:25 22.30640 113.92103 42 ft 13 kts 253°
2026-05-06 22:25 22.30601 113.91975 42 ft 21 kts 251°
2026-05-06 22:25 22.30550 113.91815 42 ft 18 kts 252°
2026-05-06 22:26 22.30563 113.91741 42 ft 9 kts 330°
2026-05-06 22:26 22.30634 113.91709 42 ft 14 kts 339°
2026-05-06 22:26 22.30682 113.91692 42 ft 0 kts 342°
2026-05-06 22:26 22.30763 113.91663 41 ft 22 kts 341°
2026-05-06 22:27 22.30899 113.91610 41 ft 19 kts 340°
2026-05-06 22:27 22.31026 113.91562 41 ft 27 kts 341°
2026-05-06 22:27 22.31256 113.91477 42 ft 33 kts 341°
2026-05-06 22:27 22.31396 113.91423 41 ft 12 kts 315°
2026-05-06 22:28 22.31396 113.91310 41 ft 21 kts 252°
2026-05-06 22:28 22.31346 113.91155 41 ft 20 kts 251°
2026-05-06 22:28 22.31305 113.91019 41 ft 17 kts 252°
2026-05-06 22:28 22.31261 113.90891 41 ft 22 kts 250°
2026-05-06 22:29 22.31195 113.90693 41 ft 33 kts 249°
2026-05-06 22:29 22.31101 113.90421 41 ft 44 kts 249°
2026-05-06 22:29 22.31049 113.90235 41 ft 16 kts 252°
2026-05-06 22:29 22.31014 113.90127 41 ft 14 kts 250°
2026-05-06 22:30 22.30983 113.90034 41 ft 12 kts 251°
2026-05-06 22:30 22.30958 113.89956 41 ft 10 kts 251°
2026-05-06 22:30 22.30975 113.89905 41 ft 7 kts 336°
2026-05-06 22:30 22.30995 113.89896 41 ft 0 kts 339°
2026-05-06 22:31 22.31011 113.89889 41 ft 6 kts 339°
2026-05-06 22:31 22.31070 113.89867 41 ft 8 kts 341°
2026-05-06 22:32 22.31113 113.89878 41 ft 6 kts 53°
2026-05-06 22:32 22.31130 113.89914 41 ft 5 kts 68°
2026-05-06 22:32 22.31178 113.90060 41 ft 47 kts 72°
2026-05-06 22:32 22.31358 113.90621 42 ft 109 kts 70°
2026-05-06 22:33 22.31664 113.91572 42 ft 161 kts 71°
2026-05-06 22:33 22.32074 113.92847 237 ft 190 kts 71°
2026-05-06 22:33 22.32513 113.94184 851 ft 192 kts 72°
2026-05-06 22:33 22.32961 113.95554 1468 ft 195 kts 72°
2026-05-06 22:34 22.33474 113.96966 1852 ft 205 kts 62°
2026-05-06 22:34 22.34273 113.98286 2225 ft 217 kts 57°
2026-05-06 22:34 22.35125 113.99625 2831 ft 217 kts 58°
2026-05-06 22:34 22.35983 114.00986 3339 ft 222 kts 57°
2026-05-06 22:35 22.36854 114.02371 3851 ft 225 kts 57°
2026-05-06 22:35 22.37744 114.03786 4356 ft 229 kts 57°
2026-05-06 22:35 22.38634 114.05204 4858 ft 232 kts 57°
2026-05-06 22:35 22.39507 114.06677 5343 ft 235 kts 67°
2026-05-06 22:36 22.39927 114.08369 5775 ft 236 kts 89°
2026-05-06 22:36 22.39713 114.10181 6000 ft 249 kts 111°
2026-05-06 22:36 22.39025 114.11955 6259 ft 264 kts 116°
2026-05-06 22:36 22.38250 114.13818 6595 ft 279 kts 115°
2026-05-06 22:37 22.37462 114.15752 7138 ft 285 kts 115°
2026-05-06 22:37 22.36671 114.17709 7731 ft 289 kts 115°
2026-05-06 22:37 22.35862 114.19714 8287 ft 294 kts 115°
2026-05-06 22:37 22.35038 114.21756 8848 ft 299 kts 115°
2026-05-06 22:38 22.34203 114.23830 9460 ft 302 kts 113°
2026-05-06 22:38 22.33713 114.26028 9963 ft 308 kts 91°
2026-05-06 22:38 22.33916 114.28366 10335 ft 320 kts 78°
2026-05-06 22:38 22.34535 114.30754 10573 ft 337 kts 68°
2026-05-06 22:39 22.35550 114.33067 10835 ft 353 kts 58°
2026-05-06 22:39 22.37007 114.35274 11107 ft 367 kts 47°
2026-05-06 22:39 22.38884 114.37220 11397 ft 381 kts 37°
2026-05-06 22:39 22.41146 114.38792 11707 ft 393 kts 25°
2026-05-06 22:40 22.43706 114.39874 12230 ft 397 kts 13°
2026-05-06 22:40 22.46422 114.40427 12857 ft 398 kts
2026-05-06 22:40 22.49183 114.40432 13470 ft 399 kts 352°
2026-05-06 22:40 22.51944 114.39877 14068 ft 399 kts 341°
2026-05-06 22:41 22.56893 114.37205 15209 ft 401 kts 320°
2026-05-06 22:41 22.58946 114.35169 15766 ft 402 kts 310°
2026-05-06 22:41 22.60619 114.32751 16304 ft 404 kts 299°
2026-05-06 22:42 22.61855 114.30012 16862 ft 405 kts 289°
2026-05-06 22:42 22.62590 114.27093 17403 ft 406 kts 278°
2026-05-06 22:42 22.62962 114.24054 17928 ft 409 kts 279°
2026-05-06 22:42 22.63676 114.21073 18428 ft 412 kts 288°
2026-05-06 22:43 22.64630 114.18128 18935 ft 415 kts 289°
2026-05-06 22:43 22.65614 114.15218 19425 ft 418 kts 291°
2026-05-06 22:43 22.66953 114.12414 19880 ft 422 kts 302°
2026-05-06 22:43 22.68748 114.09868 20351 ft 426 kts 310°
2026-05-06 22:44 22.70869 114.07636 20817 ft 429 kts 317°
2026-05-06 22:44 22.73222 114.05603 21273 ft 433 kts 322°
2026-05-06 22:44 22.75704 114.03740 21703 ft 436 kts 325°
2026-05-06 22:44 22.78318 114.01987 22120 ft 440 kts 327°
2026-05-06 22:45 22.80967 114.00337 22555 ft 442 kts 329°
2026-05-06 22:45 22.83670 113.98739 22981 ft 445 kts 330°
2026-05-06 22:45 22.86433 113.97173 23406 ft 448 kts 330°
2026-05-06 22:45 22.89199 113.95645 23838 ft 450 kts 331°
2026-05-06 22:46 22.92019 113.94112 24271 ft 452 kts 331°
2026-05-06 22:46 22.94841 113.92591 24706 ft 454 kts 331°
2026-05-06 22:46 22.97715 113.91058 25126 ft 457 kts 331°
2026-05-06 22:46 23.00555 113.89554 25527 ft 459 kts 332°
2026-05-06 22:47 23.03433 113.88035 25935 ft 462 kts 332°
2026-05-06 22:47 23.06341 113.86501 26351 ft 464 kts 330°
2026-05-06 22:47 23.09114 113.84691 26741 ft 463 kts 322°
2026-05-06 22:47 23.11573 113.82478 27103 ft 464 kts 315°
2026-05-06 22:48 23.13910 113.80060 27518 ft 465 kts 314°
2026-05-06 22:48 23.16256 113.77605 27938 ft 467 kts 314°
2026-05-06 22:48 23.18588 113.75163 28349 ft 469 kts 314°
2026-05-06 22:48 23.20959 113.72680 28728 ft 471 kts 314°
2026-05-06 22:49 23.23312 113.70214 29072 ft 474 kts 314°
2026-05-06 22:49 23.25679 113.67735 29504 ft 474 kts 314°
2026-05-06 22:49 23.28067 113.65231 30030 ft 473 kts 314°
2026-05-06 22:49 23.30431 113.62752 30146 ft 473 kts 314°
2026-05-06 22:50 23.32794 113.60274 30156 ft 469 kts 314°
2026-05-06 22:50 23.37461 113.55373 30157 ft 467 kts 314°
2026-05-06 22:51 23.42158 113.50438 30153 ft 467 kts 314°
2026-05-06 22:51 23.46832 113.45521 30153 ft 467 kts 314°
2026-05-06 22:52 23.51491 113.40614 30151 ft 467 kts 314°
2026-05-06 22:52 23.56146 113.35674 30151 ft 466 kts 313°
2026-05-06 22:53 23.60744 113.30726 30161 ft 466 kts 313°
2026-05-06 22:53 23.65259 113.25696 30157 ft 463 kts 307°
2026-05-06 22:54 23.68649 113.19747 30160 ft 463 kts 294°
2026-05-06 22:54 23.71296 113.13388 30160 ft 462 kts 293°
2026-05-06 22:55 23.73990 113.07004 30163 ft 463 kts 297°
2026-05-06 22:55 23.77738 113.01355 30168 ft 466 kts 312°
2026-05-06 22:56 23.82864 112.96960 30174 ft 470 kts 327°
2026-05-06 22:56 23.88940 112.94231 30182 ft 476 kts 339°
2026-05-06 22:57 23.95261 112.92163 30180 ft 475 kts 339°
2026-05-06 22:57 24.01628 112.90063 30181 ft 475 kts 339°
2026-05-06 22:58 24.07933 112.87972 30179 ft 477 kts 339°
2026-05-06 22:58 24.14292 112.85859 30182 ft 475 kts 339°
2026-05-06 22:59 24.20622 112.83755 30183 ft 475 kts 339°
2026-05-06 22:59 24.26954 112.81651 30182 ft 476 kts 339°
2026-05-06 23:00 24.33280 112.79546 30184 ft 474 kts 339°
2026-05-06 23:00 24.39357 112.76778 30185 ft 469 kts 326°
2026-05-06 23:01 24.44394 112.72375 30184 ft 462 kts 311°
2026-05-06 23:01 24.48082 112.66695 30182 ft 458 kts 296°
2026-05-06 23:02 24.50208 112.60155 30185 ft 456 kts 282°
2026-05-06 23:02 24.51028 112.53252 30187 ft 457 kts 277°
2026-05-06 23:03 24.51711 112.46371 30190 ft 456 kts 277°
2026-05-06 23:03 24.52388 112.39442 30191 ft 455 kts 277°
2026-05-06 23:04 24.53055 112.32543 30199 ft 457 kts 277°
2026-05-06 23:04 24.53719 112.25623 30198 ft 457 kts 277°
2026-05-06 23:05 24.54376 112.18731 30204 ft 455 kts 277°
2026-05-06 23:05 24.55034 112.11794 30213 ft 456 kts 277°
2026-05-06 23:06 24.55682 112.04916 30223 ft 455 kts 277°
2026-05-06 23:06 24.56331 111.97991 30231 ft 456 kts 277°
2026-05-06 23:07 24.56975 111.91089 30221 ft 455 kts 277°
2026-05-06 23:07 24.57614 111.84205 30212 ft 456 kts 277°
2026-05-06 23:08 24.58254 111.77275 30203 ft 456 kts 277°
2026-05-06 23:08 24.58889 111.70370 30190 ft 457 kts 277°
2026-05-06 23:09 24.59522 111.63438 30178 ft 456 kts 277°
2026-05-06 23:09 24.60151 111.56526 30164 ft 457 kts 277°
2026-05-06 23:10 24.60778 111.49602 30154 ft 457 kts 277°
2026-05-06 23:10 24.61403 111.42652 30148 ft 457 kts 277°
2026-05-06 23:11 24.62023 111.35733 30146 ft 458 kts 277°
2026-05-06 23:11 24.62641 111.28787 30153 ft 458 kts 276°
2026-05-06 23:12 24.63245 111.21821 30159 ft 457 kts 276°
2026-05-06 23:12 24.63845 111.14866 30160 ft 458 kts 276°
2026-05-06 23:13 24.64440 111.07921 30166 ft 457 kts 276°
2026-05-06 23:13 24.65032 111.00981 30173 ft 457 kts 276°
2026-05-06 23:14 24.65627 110.93980 30170 ft 458 kts 276°
2026-05-06 23:14 24.66210 110.87080 30161 ft 458 kts 277°
2026-05-06 23:15 24.67657 110.80295 30150 ft 455 kts 291°
2026-05-06 23:15 24.70702 110.74222 30138 ft 459 kts 306°
2026-05-06 23:16 24.75081 110.69104 30138 ft 460 kts 314°
2026-05-06 23:16 24.79724 110.64244 30138 ft 461 kts 314°
2026-05-06 23:17 24.84350 110.59386 30140 ft 461 kts 314°
2026-05-06 23:17 24.88963 110.54527 30144 ft 460 kts 314°
2026-05-06 23:18 24.93589 110.49645 30142 ft 460 kts 314°
2026-05-06 23:18 24.98213 110.44757 30138 ft 459 kts 314°
2026-05-06 23:19 25.02807 110.39899 30130 ft 458 kts 314°
2026-05-06 23:19 25.07421 110.35028 30121 ft 461 kts 314°
2026-05-06 23:20 25.12053 110.30133 30127 ft 461 kts 314°
2026-05-06 23:20 25.16667 110.25250 30116 ft 461 kts 314°
2026-05-06 23:21 25.21291 110.20355 30114 ft 458 kts 314°
2026-05-06 23:21 25.25940 110.15490 30110 ft 461 kts 314°
2026-05-06 23:22 25.30601 110.10610 30109 ft 462 kts 314°
2026-05-06 23:22 25.35245 110.05742 30113 ft 460 kts 314°
2026-05-06 23:23 25.39897 110.00858 30130 ft 462 kts 314°
2026-05-06 23:23 25.44531 109.95988 30137 ft 459 kts 314°
2026-05-06 23:24 25.49185 109.91090 30155 ft 465 kts 314°
2026-05-06 23:24 25.53848 109.86179 30166 ft 461 kts 314°
2026-05-06 23:25 25.58511 109.81260 30162 ft 463 kts 315°
2026-05-06 23:25 25.63167 109.76344 30174 ft 463 kts 314°
2026-05-06 23:26 25.67834 109.71410 30162 ft 464 kts 314°
2026-05-06 23:26 25.72512 109.66460 30145 ft 464 kts 314°
2026-05-06 23:27 25.76671 109.61002 30144 ft 465 kts 301°
2026-05-06 23:27 25.79312 109.54552 30132 ft 461 kts 288°
2026-05-06 23:28 25.81140 109.47757 30138 ft 461 kts 287°
2026-05-06 23:28 25.82952 109.40915 30130 ft 465 kts 287°
2026-05-06 23:29 25.84757 109.34063 30142 ft 461 kts 286°
2026-05-06 23:29 25.86548 109.27241 30155 ft 463 kts 286°
2026-05-06 23:30 25.88349 109.20363 30152 ft 465 kts 286°
2026-05-06 23:30 25.90147 109.13477 30145 ft 465 kts 286°
2026-05-06 23:31 25.91936 109.06608 30146 ft 465 kts 286°
2026-05-06 23:31 25.93760 108.99686 30152 ft 468 kts 287°
2026-05-06 23:32 25.95604 108.92766 30121 ft 466 kts 286°
2026-05-06 23:32 25.97433 108.85879 30162 ft 467 kts 286°
2026-05-06 23:33 25.99254 108.79001 30163 ft 465 kts 286°
2026-05-06 23:33 26.01083 108.72084 30167 ft 465 kts 286°
2026-05-06 23:34 26.02920 108.65179 30171 ft 467 kts 286°
2026-05-06 23:34 26.04757 108.58268 30182 ft 465 kts 286°
2026-05-06 23:35 26.06572 108.51424 30170 ft 467 kts 286°
2026-05-06 23:35 26.08407 108.44485 30177 ft 467 kts 286°
2026-05-06 23:36 26.10537 108.37704 30190 ft 466 kts 294°
2026-05-06 23:36 26.13358 108.31175 30218 ft 468 kts 295°
2026-05-06 23:37 26.16182 108.24664 30243 ft 467 kts 295°
2026-05-06 23:37 26.19021 108.18101 30245 ft 469 kts 294°
2026-05-06 23:38 26.21822 108.11612 30249 ft 467 kts 294°
2026-05-06 23:38 26.24630 108.05095 30243 ft 469 kts 294°
2026-05-06 23:39 26.27448 107.98545 30245 ft 467 kts 294°
2026-05-06 23:39 26.30244 107.92035 30249 ft 469 kts 294°
2026-05-06 23:40 26.33049 107.85495 30247 ft 467 kts 294°
2026-05-06 23:40 26.35854 107.78943 30239 ft 467 kts 294°
2026-05-06 23:41 26.38628 107.72454 30242 ft 467 kts 294°
2026-05-06 23:41 26.41430 107.65890 30249 ft 466 kts 294°
2026-05-06 23:42 26.44198 107.59395 30262 ft 466 kts 294°
2026-05-06 23:42 26.46967 107.52886 30269 ft 465 kts 294°
2026-05-06 23:43 26.49720 107.46398 30289 ft 464 kts 294°
2026-05-06 23:43 26.52474 107.39892 30290 ft 464 kts 294°
2026-05-06 23:44 26.55220 107.33397 30294 ft 464 kts 294°
2026-05-06 23:44 26.57976 107.26888 30301 ft 463 kts 294°
2026-05-06 23:45 26.60712 107.20417 30305 ft 462 kts 294°
2026-05-06 23:45 26.63458 107.13912 30305 ft 461 kts 294°
2026-05-06 23:46 26.66192 107.07477 30304 ft 462 kts 294°
2026-05-06 23:46 26.68950 107.00986 30297 ft 461 kts 294°
2026-05-06 23:47 26.71687 106.94532 30302 ft 462 kts 294°
2026-05-06 23:47 26.74431 106.88051 30307 ft 461 kts 294°
2026-05-06 23:48 26.77201 106.81596 30312 ft 462 kts 297°
2026-05-06 23:48 26.81031 106.75803 30321 ft 466 kts 313°
2026-05-06 23:49 26.85880 106.70940 30330 ft 469 kts 316°
2026-05-06 23:49 26.90786 106.66151 30333 ft 468 kts 316°
2026-05-06 23:50 26.95689 106.61353 30339 ft 468 kts 316°
2026-05-06 23:50 27.03068 106.54115 30346 ft 468 kts 316°
2026-05-06 23:51 27.07949 106.49316 30339 ft 469 kts 316°
2026-05-06 23:51 27.12856 106.44486 30332 ft 468 kts 316°
2026-05-06 23:52 27.17750 106.39662 30346 ft 469 kts 316°
2026-05-06 23:52 27.22637 106.34868 30351 ft 467 kts 316°
2026-05-06 23:53 27.27569 106.30076 30360 ft 467 kts 316°
2026-05-06 23:53 27.30042 106.27669 30469 ft 474 kts 316°
2026-05-06 23:53 27.32516 106.25260 31046 ft 471 kts 316°
2026-05-06 23:54 27.34961 106.22880 31833 ft 463 kts 316°
2026-05-06 23:54 27.37391 106.20510 32131 ft 461 kts 315°
2026-05-06 23:54 27.42198 106.15818 32159 ft 455 kts 315°
2026-05-06 23:55 27.46967 106.11155 32153 ft 457 kts 315°
2026-05-06 23:55 27.51786 106.06438 32157 ft 457 kts 315°
2026-05-06 23:56 27.56554 106.01765 32141 ft 457 kts 315°
2026-05-06 23:56 27.61363 105.97048 32135 ft 456 kts 315°
2026-05-06 23:57 27.66140 105.92355 32148 ft 456 kts 315°
2026-05-06 23:57 27.70719 105.87455 32137 ft 450 kts 307°
2026-05-06 23:58 27.74028 105.81540 32132 ft 447 kts 292°
2026-05-06 23:58 27.76078 105.74908 32132 ft 446 kts 287°
2026-05-06 23:59 27.77940 105.68275 32141 ft 445 kts 287°
2026-05-06 23:59 27.79822 105.61630 32137 ft 444 kts 289°
2026-05-07 00:00 27.82246 105.55222 32150 ft 445 kts 292°
2026-05-07 00:00 27.84724 105.48841 32145 ft 443 kts 292°
2026-05-07 00:01 27.87191 105.42466 32151 ft 443 kts 291°
2026-05-07 00:01 27.89731 105.36106 32153 ft 445 kts 295°
2026-05-07 00:02 27.92533 105.29906 32175 ft 445 kts 295°
2026-05-07 00:02 27.95332 105.23676 32181 ft 445 kts 295°
2026-05-07 00:03 27.98849 105.17886 32178 ft 450 kts 309°
2026-05-07 00:03 28.03665 105.13334 32179 ft 461 kts 322°
2026-05-07 00:04 28.09128 105.09514 32161 ft 461 kts 323°
2026-05-07 00:04 28.14567 105.05725 32170 ft 461 kts 323°
2026-05-07 00:05 28.20018 105.01918 32175 ft 459 kts 323°
2026-05-07 00:05 28.25463 104.98106 32194 ft 460 kts 323°
2026-05-07 00:06 28.30916 104.94283 32182 ft 459 kts 323°
2026-05-07 00:06 28.36319 104.90490 32159 ft 459 kts 323°
2026-05-07 00:07 28.41767 104.86668 32124 ft 459 kts 323°
2026-05-07 00:07 28.47181 104.82888 32119 ft 459 kts 323°
2026-05-07 00:08 28.52623 104.79082 32116 ft 458 kts 323°
2026-05-07 00:08 28.58077 104.75262 32115 ft 458 kts 323°
2026-05-07 00:09 28.63477 104.71474 32116 ft 459 kts 323°
2026-05-07 00:09 28.68895 104.67670 32116 ft 458 kts 323°
2026-05-07 00:10 28.74324 104.63852 32108 ft 457 kts 323°
2026-05-07 00:10 28.79727 104.60049 32099 ft 456 kts 323°
2026-05-07 00:11 28.85139 104.56234 32093 ft 457 kts 323°
2026-05-07 00:11 28.90544 104.52393 32089 ft 456 kts 323°
2026-05-07 00:12 28.95942 104.48547 32095 ft 457 kts 323°
2026-05-07 00:12 29.01289 104.44733 32085 ft 454 kts 323°
2026-05-07 00:13 29.06667 104.40893 32090 ft 457 kts 323°
2026-05-07 00:13 29.12045 104.37048 32079 ft 455 kts 323°
2026-05-07 00:14 29.17437 104.33189 32100 ft 454 kts 322°
2026-05-07 00:14 29.22921 104.29549 32086 ft 461 kts 330°
2026-05-07 00:15 29.29126 104.27496 32091 ft 476 kts 346°
2026-05-07 00:15 29.35816 104.27536 32106 ft 489 kts
2026-05-07 00:16 29.42613 104.28724 32111 ft 491 kts
2026-05-07 00:16 29.49357 104.29907 32117 ft 491 kts
2026-05-07 00:17 29.56119 104.31077 32119 ft 493 kts
2026-05-07 00:17 29.62931 104.32249 32111 ft 492 kts